contact:dominique.lefevre@mio.osupytheas.fr, maurice.libes@osupytheas.fr, didier.mallarino@osupytheas.fr
Project:EMSO http://www.emso-fr.org/EMSO-France
Depth: 2436.0 m
Title:EMSO Ligure Ouest : Data MII capteur AQUADOPP
Date,Latitude,Longitude,X_East,Y_North,Z_Up,Amplitude_X,Amplitude_Y,Amplitude_Z,Batterie,SoundSpeed,Heading,Pitch,Roll,Pressure,TIS,Speed,Direction
, degrees North, degrees East, m.s-1, m.s-1,m.s-1, 1, 1, 1, Volt, m.s-1, degree, degree, degree, dbar, degree_C, m.s-1, degree
2023-12-15T00:04:03,42.805,6.029,-0.043,-0.03,-0.018,108.0,107.0,105.0,13.4,1505.2,351.0,-0.8,1.8,2471.528,13.28,0.052,235.1
2023-12-15T00:07:03,42.805,6.029,-0.061,-0.017,-0.037,107.0,109.0,105.0,13.4,1505.2,346.3,-0.8,1.8,2471.518,13.29,0.063,254.4
2023-12-15T00:10:03,42.805,6.029,-0.048,-0.036,-0.003,109.0,108.0,105.0,13.4,1505.2,346.8,-0.8,1.8,2471.562,13.29,0.06,233.1
2023-12-15T00:13:03,42.805,6.029,-0.043,0.008,-0.05,109.0,108.0,105.0,13.4,1505.2,355.3,-0.8,1.8,2471.562,13.29,0.043,280.5
2023-12-15T00:16:03,42.805,6.029,-0.033,-0.025,-0.02,109.0,108.0,105.0,13.4,1505.2,347.6,-0.8,1.8,2471.54,13.29,0.041,232.9
2023-12-15T00:19:03,42.805,6.029,-0.037,-0.012,-0.04,109.0,109.0,105.0,13.4,1505.2,345.9,-0.8,1.8,2471.494,13.29,0.038,252.0
2023-12-15T00:22:03,42.805,6.029,-0.049,-0.013,-0.022,109.0,109.0,105.0,13.4,1505.2,353.8,-0.8,1.8,2471.49,13.29,0.05,255.1
2023-12-15T00:25:03,42.805,6.029,-0.038,-0.007,-0.02,109.0,108.0,107.0,13.3,1505.2,358.1,-0.7,1.8,2471.496,13.29,0.038,259.6
2023-12-15T00:28:03,42.805,6.029,-0.04,-0.021,-0.031,109.0,109.0,105.0,13.4,1505.2,356.3,-0.7,1.8,2471.472,13.29,0.045,242.3
2023-12-15T00:31:03,42.805,6.029,-0.03,-0.032,0.004,108.0,109.0,106.0,13.4,1505.2,0.8,-0.7,1.8,2471.488,13.29,0.043,223.1
2023-12-15T00:34:03,42.805,6.029,-0.03,-0.008,-0.037,108.0,109.0,105.0,13.3,1505.2,352.9,-0.8,1.8,2471.438,13.29,0.031,255.1
2023-12-15T00:37:03,42.805,6.029,-0.014,-0.031,-0.042,108.0,108.0,105.0,13.4,1505.2,339.1,-0.7,1.8,2471.478,13.29,0.034,204.3
2023-12-15T00:40:03,42.805,6.029,-0.033,-0.011,0.004,110.0,108.0,106.0,13.3,1505.2,356.6,-0.8,1.8,2471.476,13.29,0.034,251.6
2023-12-15T00:43:03,42.805,6.029,-0.038,-0.034,-0.051,109.0,107.0,106.0,13.3,1505.2,345.1,-0.7,1.8,2471.463,13.29,0.05,228.2
2023-12-15T00:46:03,42.805,6.029,-0.034,-0.01,-0.03,109.0,107.0,105.0,13.4,1505.2,354.6,-0.8,1.8,2471.478,13.29,0.035,253.6
2023-12-15T00:49:03,42.805,6.029,-0.038,0.007,-0.04,109.0,108.0,105.0,13.4,1505.2,353.9,-0.8,1.8,2471.504,13.29,0.038,280.4
2023-12-15T00:52:03,42.805,6.029,-0.026,-0.036,-0.03,109.0,108.0,106.0,13.4,1505.2,356.4,-0.8,1.8,2471.503,13.29,0.044,215.8
2023-12-15T00:55:03,42.805,6.029,-0.039,-0.013,-0.012,110.0,109.0,106.0,13.4,1505.2,357.2,-0.8,1.8,2471.483,13.29,0.041,251.6
2023-12-15T00:58:03,42.805,6.029,-0.019,-0.045,-0.027,110.0,108.0,106.0,13.4,1505.2,350.2,-0.8,1.8,2471.469,13.29,0.048,202.9
2023-12-15T01:04:03,42.805,6.029,-0.041,-0.016,-0.033,111.0,109.0,107.0,13.4,1505.2,354.7,-0.8,1.8,2471.503,13.29,0.044,248.7
2023-12-15T01:07:03,42.805,6.029,-0.045,-0.009,-0.036,111.0,108.0,106.0,13.4,1505.2,2.3,-0.8,1.8,2471.491,13.29,0.045,258.7
2023-12-15T01:10:03,42.805,6.029,-0.017,-0.029,-0.028,110.0,108.0,106.0,13.4,1505.2,344.3,-0.8,1.8,2471.525,13.29,0.033,210.4
2023-12-15T01:13:03,42.805,6.029,-0.052,-0.026,-0.059,110.0,109.0,106.0,13.4,1505.2,354.5,-0.7,1.8,2471.474,13.29,0.058,243.4
2023-12-15T01:16:03,42.805,6.029,-0.028,-0.007,-0.013,110.0,108.0,106.0,13.3,1505.2,358.2,-0.8,1.8,2471.499,13.29,0.028,256.0
2023-12-15T01:19:03,42.805,6.029,-0.052,-0.001,-0.055,110.0,108.0,106.0,13.4,1505.2,4.0,-0.8,1.8,2471.505,13.29,0.052,268.9
2023-12-15T01:22:02,42.805,6.029,-0.047,-0.018,-0.024,109.0,108.0,106.0,13.4,1505.2,353.8,-0.8,1.9,2471.532,13.29,0.05,249.0
2023-12-15T01:25:03,42.805,6.029,-0.054,-0.026,-0.031,109.0,107.0,105.0,13.4,1505.2,354.7,-0.8,1.8,2471.462,13.29,0.059,244.3
2023-12-15T01:28:03,42.805,6.029,-0.035,-0.009,-0.016,109.0,109.0,105.0,13.3,1505.2,357.3,-0.8,1.8,2471.471,13.29,0.036,255.6
2023-12-15T01:31:03,42.805,6.029,-0.034,-0.038,-0.059,108.0,108.0,107.0,13.4,1505.2,350.7,-0.8,1.8,2471.464,13.29,0.05,221.8
2023-12-15T01:34:03,42.805,6.029,-0.02,-0.03,-0.021,108.0,108.0,106.0,13.4,1505.2,357.5,-0.8,1.8,2471.459,13.29,0.036,213.7
2023-12-15T01:37:03,42.805,6.029,-0.031,-0.008,-0.017,109.0,109.0,104.0,13.4,1505.2,0.0,-0.8,1.8,2471.528,13.29,0.032,255.5
2023-12-15T01:40:03,42.805,6.029,-0.048,-0.041,-0.022,110.0,109.0,106.0,13.4,1505.2,339.1,-0.7,1.8,2471.455,13.29,0.063,229.5
2023-12-15T01:43:03,42.805,6.029,-0.043,-0.016,-0.05,109.0,108.0,106.0,13.4,1505.2,356.4,-0.7,1.8,2471.441,13.29,0.045,249.6
2023-12-15T01:46:03,42.805,6.029,-0.027,-0.036,-0.029,108.0,108.0,106.0,13.4,1505.2,344.6,-0.8,1.8,2471.473,13.29,0.045,216.9
2023-12-15T01:49:03,42.805,6.029,-0.035,-0.029,-0.005,109.0,109.0,107.0,13.3,1505.2,0.8,-0.7,1.8,2471.446,13.29,0.045,230.4
2023-12-15T01:52:03,42.805,6.029,-0.024,-0.046,-0.023,110.0,109.0,106.0,13.4,1505.2,339.6,-0.7,1.8,2471.465,13.29,0.051,207.6
2023-12-15T01:55:03,42.805,6.029,-0.013,-0.049,-0.047,109.0,109.0,105.0,13.4,1505.2,344.5,-0.8,1.8,2471.467,13.29,0.05,194.9
2023-12-15T01:58:03,42.805,6.029,-0.032,-0.034,-0.019,110.0,108.0,105.0,13.4,1505.2,344.3,-0.7,1.8,2471.478,13.29,0.046,223.3
2023-12-15T02:04:03,42.805,6.029,-0.051,-0.017,-0.012,109.0,108.0,106.0,13.4,1505.2,0.0,-0.8,1.8,2471.489,13.29,0.053,251.6
2023-12-15T02:07:03,42.805,6.029,-0.036,-0.015,-0.015,110.0,109.0,107.0,13.4,1505.2,342.5,-0.8,1.8,2471.464,13.29,0.039,247.4
2023-12-15T02:10:03,42.805,6.029,-0.041,-0.028,-0.021,110.0,109.0,107.0,13.4,1505.2,350.9,-0.7,1.8,2471.527,13.29,0.049,235.7
2023-12-15T02:13:03,42.805,6.029,-0.053,-0.035,-0.042,110.0,108.0,106.0,13.4,1505.2,347.1,-0.8,1.8,2471.484,13.29,0.063,236.6
2023-12-15T02:16:03,42.805,6.029,-0.036,-0.022,-0.03,110.0,108.0,107.0,13.4,1505.2,2.3,-0.8,1.8,2471.472,13.29,0.042,238.6
2023-12-15T02:19:03,42.805,6.029,-0.031,-0.038,0.008,110.0,110.0,106.0,13.4,1505.2,340.2,-0.8,1.8,2471.443,13.29,0.049,219.2
2023-12-15T02:22:03,42.805,6.029,-0.053,-0.024,-0.016,109.0,109.0,106.0,13.4,1505.2,350.9,-0.8,1.8,2471.472,13.29,0.058,245.6
2023-12-15T02:25:03,42.805,6.029,-0.042,-0.034,-0.028,110.0,110.0,106.0,13.4,1505.2,344.5,-0.8,1.8,2471.46,13.29,0.054,231.0
2023-12-15T02:28:03,42.805,6.029,-0.03,-0.035,0.014,109.0,109.0,106.0,13.4,1505.2,346.8,-0.8,1.8,2471.467,13.29,0.046,220.6
2023-12-15T02:31:03,42.805,6.029,-0.05,-0.014,-0.04,109.0,109.0,106.0,13.3,1505.2,355.8,-0.7,1.8,2471.417,13.29,0.051,254.4
2023-12-15T02:34:03,42.805,6.029,-0.057,-0.014,-0.03,110.0,108.0,107.0,13.4,1505.2,348.3,-0.8,1.8,2471.456,13.29,0.058,256.2
2023-12-15T02:37:03,42.805,6.029,-0.027,-0.012,0.0,110.0,108.0,107.0,13.3,1505.2,0.8,-0.8,1.8,2471.429,13.29,0.029,246.0
2023-12-15T02:40:03,42.805,6.029,-0.049,-0.025,-0.051,110.0,109.0,106.0,13.4,1505.2,358.3,-0.8,1.8,2471.457,13.29,0.055,243.0
2023-12-15T02:43:03,42.805,6.029,-0.04,-0.036,-0.017,110.0,109.0,106.0,13.4,1505.2,342.3,-0.8,1.8,2471.448,13.29,0.053,228.0
2023-12-15T02:46:03,42.805,6.029,-0.061,-0.043,-0.043,111.0,109.0,106.0,13.4,1505.2,347.1,-0.7,1.8,2471.439,13.29,0.074,234.8
2023-12-15T02:49:03,42.805,6.029,-0.048,-0.03,-0.005,110.0,110.0,107.0,13.4,1505.2,349.9,-0.8,1.8,2471.431,13.29,0.056,238.0
2023-12-15T02:52:03,42.805,6.029,-0.046,-0.02,-0.012,110.0,108.0,107.0,13.3,1505.2,349.2,-0.8,1.8,2471.442,13.29,0.05,246.5
2023-12-15T02:55:03,42.805,6.029,-0.04,-0.048,-0.031,110.0,109.0,106.0,13.4,1505.2,338.2,-0.7,1.8,2471.485,13.29,0.062,219.8
2023-12-15T02:58:03,42.805,6.029,-0.05,-0.034,-0.025,109.0,108.0,107.0,13.4,1505.2,345.5,-0.8,1.8,2471.441,13.29,0.06,235.8
2023-12-15T03:04:03,42.805,6.029,-0.055,-0.012,-0.035,110.0,108.0,107.0,13.4,1505.2,350.2,-0.8,1.8,2471.501,13.29,0.056,257.7
2023-12-15T03:07:03,42.805,6.029,-0.057,-0.003,-0.037,110.0,110.0,105.0,13.4,1505.2,355.7,-0.7,1.8,2471.52,13.29,0.057,267.0
2023-12-15T03:10:03,42.805,6.029,-0.051,-0.033,-0.02,110.0,109.0,106.0,13.4,1505.2,345.1,-0.7,1.8,2471.493,13.29,0.06,237.1
2023-12-15T03:13:03,42.805,6.029,-0.043,-0.031,-0.006,110.0,108.0,107.0,13.4,1505.2,351.1,-0.8,1.8,2471.472,13.29,0.053,234.2
2023-12-15T03:16:03,42.805,6.029,-0.039,-0.038,-0.016,109.0,110.0,106.0,13.3,1505.2,341.0,-0.7,1.8,2471.474,13.29,0.054,225.7
2023-12-15T03:19:03,42.805,6.029,-0.054,-0.041,0.0,111.0,109.0,106.0,13.4,1505.2,344.8,-0.7,1.8,2471.473,13.29,0.067,232.8
2023-12-15T03:22:03,42.805,6.029,-0.032,-0.022,-0.035,110.0,108.0,106.0,13.3,1505.2,345.7,-0.8,1.8,2471.498,13.29,0.038,235.5
2023-12-15T03:25:03,42.805,6.029,-0.022,-0.03,0.0,109.0,109.0,106.0,13.4,1505.2,345.7,-0.8,1.8,2471.482,13.29,0.037,216.3
2023-12-15T03:28:03,42.805,6.029,-0.04,-0.003,-0.015,109.0,109.0,106.0,13.4,1505.2,1.7,-0.8,1.8,2471.474,13.29,0.04,265.7
2023-12-15T03:31:03,42.805,6.029,-0.045,-0.037,-0.012,109.0,109.0,106.0,13.3,1505.2,339.6,-0.8,1.8,2471.454,13.29,0.058,230.6
2023-12-15T03:34:03,42.805,6.029,-0.044,-0.039,-0.026,110.0,109.0,106.0,13.4,1505.2,354.7,-0.8,1.8,2471.43,13.29,0.058,228.4
2023-12-15T03:37:03,42.805,6.029,-0.062,-0.053,-0.037,110.0,109.0,106.0,13.3,1505.2,345.5,-0.8,1.8,2471.476,13.29,0.081,229.5
2023-12-15T03:40:03,42.805,6.029,-0.062,-0.029,0.008,109.0,108.0,107.0,13.4,1505.2,347.1,-0.8,1.8,2471.477,13.29,0.068,244.9
2023-12-15T03:43:03,42.805,6.029,-0.052,-0.015,-0.043,110.0,108.0,106.0,13.4,1505.2,346.8,-0.8,1.8,2471.452,13.29,0.054,253.9
2023-12-15T03:46:03,42.805,6.029,-0.039,-0.023,0.015,109.0,108.0,106.0,13.4,1505.2,354.8,-0.8,1.8,2471.431,13.29,0.045,239.5
2023-12-15T03:49:03,42.805,6.029,-0.038,-0.013,-0.006,109.0,110.0,106.0,13.3,1505.2,347.3,-0.8,1.8,2471.435,13.29,0.04,251.1
2023-12-15T03:52:03,42.805,6.029,-0.047,-0.012,-0.065,110.0,109.0,106.0,13.4,1505.2,347.6,-0.8,1.8,2471.478,13.29,0.048,255.7
2023-12-15T03:55:03,42.805,6.029,-0.052,-0.036,-0.018,109.0,109.0,105.0,13.4,1505.2,358.1,-0.8,1.8,2471.454,13.29,0.063,235.3
2023-12-15T03:58:03,42.805,6.029,-0.053,-0.027,-0.031,110.0,108.0,107.0,13.4,1505.2,352.5,-0.8,1.8,2471.482,13.29,0.059,243.0
2023-12-15T04:04:03,42.805,6.029,-0.047,-0.02,-0.032,110.0,109.0,106.0,13.4,1505.2,348.4,-0.8,1.8,2471.562,13.28,0.051,247.0
2023-12-15T04:07:03,42.805,6.029,-0.058,-0.017,-0.021,109.0,109.0,106.0,13.4,1505.2,348.1,-0.8,1.8,2471.518,13.29,0.06,253.7
2023-12-15T04:10:03,42.805,6.029,-0.042,-0.019,-0.005,110.0,109.0,106.0,13.4,1505.2,345.7,-0.8,1.8,2471.536,13.29,0.046,245.7
2023-12-15T04:13:03,42.805,6.029,-0.045,-0.001,-0.022,108.0,107.0,106.0,13.4,1505.2,3.9,-0.8,1.8,2471.529,13.29,0.045,268.7
2023-12-15T04:16:03,42.805,6.029,-0.046,-0.031,-0.05,109.0,110.0,105.0,13.3,1505.2,344.3,-0.8,1.8,2471.574,13.29,0.055,236.0
2023-12-15T04:19:03,42.805,6.029,-0.038,0.001,-0.017,109.0,108.0,106.0,13.4,1505.2,355.6,-0.8,1.8,2471.531,13.29,0.038,271.5
2023-12-15T04:22:03,42.805,6.029,-0.024,-0.035,-0.059,109.0,109.0,106.0,13.4,1505.2,343.6,-0.8,1.8,2471.494,13.29,0.042,214.4
2023-12-15T04:25:03,42.805,6.029,-0.066,-0.013,-0.054,110.0,108.0,106.0,13.4,1505.2,2.5,-0.7,1.8,2471.52,13.29,0.067,258.9
2023-12-15T04:28:03,42.805,6.029,-0.05,-0.025,-0.017,109.0,108.0,106.0,13.3,1505.2,353.8,-0.8,1.9,2471.493,13.29,0.055,243.4
2023-12-15T04:31:03,42.805,6.029,-0.057,-0.018,-0.019,110.0,109.0,106.0,13.4,1505.2,358.3,-0.8,1.8,2471.499,13.29,0.059,252.5
2023-12-15T04:34:03,42.805,6.029,-0.052,-0.024,-0.041,109.0,109.0,106.0,13.4,1505.2,347.5,-0.8,1.8,2471.542,13.29,0.057,245.2
2023-12-15T04:37:03,42.805,6.029,-0.024,0.007,-0.006,109.0,108.0,107.0,13.4,1505.2,3.1,-0.8,1.8,2471.526,13.29,0.025,286.3
2023-12-15T04:40:03,42.805,6.029,-0.039,0.011,-0.029,110.0,108.0,106.0,13.4,1505.2,345.5,-0.7,1.8,2471.522,13.29,0.04,285.7
2023-12-15T04:43:03,42.805,6.029,-0.052,-0.007,-0.031,110.0,109.0,107.0,13.4,1505.2,347.2,-0.8,1.8,2471.519,13.29,0.052,262.3
2023-12-15T04:46:03,42.805,6.029,-0.03,-0.029,-0.032,110.0,109.0,106.0,13.4,1505.2,357.2,-0.8,1.8,2471.528,13.29,0.041,226.0
2023-12-15T04:49:03,42.805,6.029,-0.043,-0.029,0.0,110.0,109.0,106.0,13.4,1505.2,350.9,-0.8,1.8,2471.556,13.29,0.051,236.0
2023-12-15T04:52:03,42.805,6.029,-0.054,-0.017,-0.031,110.0,109.0,106.0,13.3,1505.2,356.6,-0.7,1.8,2471.503,13.29,0.056,252.5
2023-12-15T04:55:03,42.805,6.029,-0.063,-0.001,-0.057,109.0,109.0,107.0,13.4,1505.2,352.1,-0.8,1.8,2471.527,13.29,0.063,269.1
2023-12-15T04:58:03,42.805,6.029,-0.051,-0.015,-0.004,110.0,109.0,107.0,13.3,1505.2,356.0,-0.8,1.8,2471.546,13.29,0.053,253.6
2023-12-15T05:04:03,42.805,6.029,-0.054,-0.042,-0.016,110.0,109.0,107.0,13.3,1505.2,349.5,-0.8,1.8,2471.617,13.29,0.068,232.1
2023-12-15T05:07:03,42.805,6.029,-0.054,-0.016,-0.045,109.0,108.0,106.0,13.3,1505.2,1.6,-0.7,1.8,2471.589,13.29,0.056,253.5
2023-12-15T05:10:03,42.805,6.029,-0.037,-0.017,-0.019,109.0,110.0,106.0,13.4,1505.2,352.6,-0.8,1.8,2471.582,13.29,0.04,245.3
2023-12-15T05:13:03,42.805,6.029,-0.046,-0.028,-0.031,109.0,109.0,106.0,13.4,1505.2,355.7,-0.8,1.8,2471.549,13.29,0.053,238.7
2023-12-15T05:16:03,42.805,6.029,-0.026,-0.026,-0.053,109.0,109.0,106.0,13.4,1505.2,349.6,-0.8,1.8,2471.579,13.29,0.036,225.0
2023-12-15T05:19:03,42.805,6.029,-0.042,-0.004,-0.017,109.0,109.0,106.0,13.3,1505.2,3.2,-0.8,1.8,2471.568,13.29,0.042,264.6
2023-12-15T05:22:03,42.805,6.029,-0.034,-0.01,-0.018,109.0,109.0,106.0,13.3,1505.2,353.7,-0.8,1.8,2471.595,13.29,0.035,253.6
2023-12-15T05:25:03,42.805,6.029,-0.037,-0.035,-0.005,110.0,109.0,107.0,13.4,1505.2,348.5,-0.8,1.8,2471.556,13.29,0.05,226.6
2023-12-15T05:28:03,42.805,6.029,-0.043,-0.027,-0.063,109.0,108.0,107.0,13.3,1505.2,354.2,-0.8,1.8,2471.559,13.29,0.05,237.9
2023-12-15T05:31:03,42.805,6.029,-0.039,-0.032,-0.003,109.0,108.0,106.0,13.3,1505.2,348.5,-0.8,1.8,2471.544,13.29,0.05,230.6
2023-12-15T05:34:03,42.805,6.029,-0.035,-0.01,-0.026,110.0,108.0,106.0,13.3,1505.2,3.1,-0.7,1.8,2471.556,13.29,0.036,254.1
2023-12-15T05:37:03,42.805,6.029,-0.045,-0.006,-0.043,110.0,109.0,106.0,13.4,1505.2,340.6,-0.8,1.8,2471.554,13.29,0.045,262.4
2023-12-15T05:40:03,42.805,6.029,-0.045,-0.036,-0.053,110.0,108.0,106.0,13.4,1505.2,347.2,-0.8,1.8,2471.561,13.29,0.057,231.3
2023-12-15T05:43:03,42.805,6.029,-0.039,-0.042,-0.013,110.0,108.0,107.0,13.4,1505.2,347.4,-0.8,1.8,2471.581,13.29,0.057,222.9
2023-12-15T05:46:03,42.805,6.029,-0.03,-0.022,-0.032,110.0,109.0,107.0,13.4,1505.2,352.9,-0.8,1.8,2471.589,13.29,0.037,233.7
2023-12-15T05:49:03,42.805,6.029,-0.039,-0.02,-0.048,110.0,109.0,106.0,13.4,1505.2,356.3,-0.8,1.8,2471.577,13.29,0.043,242.9
2023-12-15T05:52:03,42.805,6.029,-0.066,-0.031,-0.026,111.0,110.0,106.0,13.3,1505.2,359.1,-0.8,1.8,2471.549,13.29,0.072,244.8
2023-12-15T05:55:03,42.805,6.029,-0.025,-0.053,-0.019,110.0,109.0,107.0,13.4,1505.2,342.9,-0.8,1.8,2471.574,13.29,0.058,205.3
2023-12-15T05:58:03,42.805,6.029,-0.037,-0.025,-0.006,111.0,107.0,106.0,13.3,1505.2,353.6,-0.8,1.8,2471.592,13.29,0.044,236.0
2023-12-15T06:04:03,42.805,6.029,-0.04,-0.024,-0.032,110.0,109.0,107.0,13.4,1505.2,344.3,-0.8,1.8,2471.63,13.29,0.046,239.0
2023-12-15T06:07:03,42.805,6.029,-0.011,-0.025,-0.013,110.0,111.0,106.0,13.4,1505.2,343.6,-0.8,1.8,2471.608,13.29,0.027,203.7
2023-12-15T06:10:03,42.805,6.029,-0.05,-0.024,-0.062,109.0,109.0,106.0,13.4,1505.2,357.4,-0.8,1.8,2471.611,13.29,0.055,244.4
2023-12-15T06:13:03,42.805,6.029,-0.03,-0.035,-0.026,109.0,109.0,106.0,13.4,1505.2,343.7,-0.8,1.8,2471.671,13.29,0.046,220.6
2023-12-15T06:16:03,42.805,6.029,-0.041,-0.05,-0.038,109.0,110.0,107.0,13.4,1505.2,347.6,-0.7,1.8,2471.654,13.29,0.064,219.3
2023-12-15T06:19:03,42.805,6.029,-0.054,-0.026,-0.019,110.0,109.0,106.0,13.4,1505.2,0.8,-0.7,1.8,2471.644,13.29,0.059,244.3
2023-12-15T06:22:03,42.805,6.029,-0.031,-0.042,-0.009,111.0,109.0,106.0,13.4,1505.2,337.6,-0.8,1.8,2471.623,13.29,0.052,216.4
2023-12-15T06:25:03,42.805,6.029,-0.045,-0.033,-0.052,110.0,109.0,106.0,13.3,1505.2,347.6,-0.8,1.8,2471.643,13.29,0.055,233.7
2023-12-15T06:28:03,42.805,6.029,-0.04,-0.003,-0.009,110.0,109.0,105.0,13.3,1505.2,1.7,-0.7,1.8,2471.614,13.29,0.04,265.7
2023-12-15T06:31:03,42.805,6.029,-0.044,-0.017,-0.033,110.0,110.0,107.0,13.3,1505.2,356.0,-0.7,1.8,2471.619,13.29,0.047,248.9
2023-12-15T06:34:03,42.805,6.029,-0.03,-0.049,-0.023,110.0,109.0,107.0,13.4,1505.2,350.9,-0.8,1.8,2471.64,13.29,0.057,211.5
2023-12-15T06:37:03,42.805,6.029,-0.028,-0.016,-0.044,109.0,109.0,107.0,13.4,1505.2,351.1,-0.7,1.8,2471.629,13.29,0.032,240.3
2023-12-15T06:40:03,42.805,6.029,-0.041,-0.019,-0.023,111.0,109.0,106.0,13.3,1505.2,355.9,-0.8,1.8,2471.646,13.29,0.045,245.1
2023-12-15T06:43:03,42.805,6.029,-0.044,-0.033,-0.015,110.0,109.0,106.0,13.4,1505.2,349.3,-0.8,1.8,2471.668,13.29,0.055,233.1
2023-12-15T06:46:03,42.805,6.029,-0.043,0.003,-0.013,110.0,110.0,107.0,13.4,1505.2,356.7,-0.8,1.8,2471.645,13.29,0.043,274.0
2023-12-15T06:49:03,42.805,6.029,-0.075,-0.014,-0.036,110.0,109.0,106.0,13.4,1505.2,347.2,-0.8,1.8,2471.658,13.29,0.076,259.4
2023-12-15T06:52:03,42.805,6.029,-0.045,-0.035,-0.004,110.0,108.0,106.0,13.3,1505.2,346.9,-0.8,1.8,2471.647,13.29,0.057,232.1
2023-12-15T06:55:03,42.805,6.029,-0.043,-0.025,-0.012,110.0,109.0,106.0,13.4,1505.2,350.8,-0.8,1.8,2471.651,13.29,0.049,239.8
2023-12-15T06:58:03,42.805,6.029,-0.055,-0.038,-0.007,110.0,108.0,105.0,13.4,1505.2,1.6,-0.8,1.8,2471.656,13.29,0.066,235.4
2023-12-15T07:04:03,42.805,6.029,-0.049,-0.011,-0.032,110.0,108.0,107.0,13.4,1505.2,345.0,-0.8,1.8,2471.728,13.28,0.05,257.3
2023-12-15T07:07:03,42.805,6.029,-0.046,-0.013,-0.021,109.0,109.0,106.0,13.4,1505.2,355.7,-0.7,1.8,2471.717,13.29,0.047,254.2
2023-12-15T07:10:03,42.805,6.029,-0.053,-0.004,-0.015,110.0,109.0,105.0,13.4,1505.2,1.5,-0.7,1.8,2471.709,13.29,0.053,265.7
2023-12-15T07:13:03,42.805,6.029,-0.049,-0.01,-0.048,109.0,108.0,106.0,13.4,1505.2,359.1,-0.7,1.7,2471.733,13.29,0.05,258.5
2023-12-15T07:16:03,42.805,6.029,-0.056,-0.042,-0.031,109.0,109.0,108.0,13.4,1505.2,344.1,-0.8,1.8,2471.722,13.29,0.069,233.1
2023-12-15T07:19:03,42.805,6.029,-0.05,-0.039,-0.055,110.0,113.0,106.0,13.3,1505.2,356.6,-0.7,1.8,2471.72,13.29,0.063,232.0
2023-12-15T07:22:03,42.805,6.029,-0.059,-0.021,0.001,109.0,108.0,106.0,13.4,1505.2,346.1,-0.8,1.8,2471.719,13.29,0.062,250.4
2023-12-15T07:25:03,42.805,6.029,-0.051,-0.024,-0.015,110.0,109.0,106.0,13.3,1505.2,0.0,-0.8,1.8,2471.686,13.29,0.056,244.8
2023-12-15T07:28:03,42.805,6.029,-0.048,-0.037,0.007,109.0,108.0,106.0,13.4,1505.2,340.1,-0.8,1.8,2471.699,13.29,0.06,232.4
2023-12-15T07:31:03,42.805,6.029,-0.023,-0.024,-0.036,109.0,109.0,106.0,13.4,1505.2,346.3,-0.8,1.8,2471.709,13.29,0.033,223.8
2023-12-15T07:34:03,42.805,6.029,-0.047,-0.021,-0.042,110.0,109.0,106.0,13.4,1505.2,3.2,-0.8,1.8,2471.685,13.29,0.051,245.9
2023-12-15T07:37:03,42.805,6.029,-0.038,-0.028,0.0,111.0,109.0,106.0,13.4,1505.2,339.8,-0.8,1.8,2471.733,13.29,0.047,233.6
2023-12-15T07:40:03,42.805,6.029,-0.034,-0.043,-0.008,109.0,109.0,106.0,13.4,1505.2,353.6,-0.8,1.8,2471.726,13.29,0.054,218.3
2023-12-15T07:43:03,42.805,6.029,-0.051,-0.033,-0.048,111.0,110.0,107.0,13.4,1505.2,347.7,-0.8,1.8,2471.724,13.29,0.06,237.1
2023-12-15T07:46:03,42.805,6.029,-0.056,-0.031,-0.04,109.0,109.0,106.0,13.4,1505.2,359.2,-0.7,1.8,2471.714,13.29,0.064,241.0
2023-12-15T07:49:03,42.805,6.029,-0.05,-0.032,-0.049,110.0,109.0,106.0,13.3,1505.2,338.3,-0.8,1.8,2471.734,13.29,0.059,237.4
2023-12-15T07:52:03,42.805,6.029,-0.056,-0.046,0.007,111.0,109.0,106.0,13.4,1505.2,350.2,-0.7,1.8,2471.7,13.29,0.072,230.6
2023-12-15T07:55:03,42.805,6.029,-0.056,-0.02,-0.028,111.0,109.0,106.0,13.4,1505.2,1.5,-0.8,1.8,2471.689,13.29,0.059,250.4
2023-12-15T07:58:03,42.805,6.029,-0.059,-0.027,-0.028,110.0,108.0,105.0,13.4,1505.2,348.6,-0.8,1.8,2471.695,13.29,0.064,245.4
2023-12-15T08:04:03,42.805,6.029,-0.061,-0.013,-0.019,109.0,109.0,106.0,13.4,1505.2,1.5,-0.7,1.8,2471.789,13.28,0.062,258.0
2023-12-15T08:07:03,42.805,6.029,-0.047,-0.017,-0.005,110.0,108.0,106.0,13.3,1505.2,358.4,-0.7,1.8,2471.757,13.29,0.049,250.1
2023-12-15T08:10:03,42.805,6.029,-0.033,-0.016,-0.031,110.0,108.0,107.0,13.4,1505.2,339.8,-0.7,1.8,2471.713,13.29,0.036,244.1
2023-12-15T08:13:03,42.805,6.029,-0.048,-0.025,-0.014,110.0,108.0,106.0,13.4,1505.2,347.9,-0.8,1.8,2471.79,13.29,0.054,242.5
2023-12-15T08:16:03,42.805,6.029,-0.065,-0.025,-0.03,109.0,109.0,106.0,13.4,1505.2,1.6,-0.8,1.8,2471.727,13.29,0.069,249.0
2023-12-15T08:19:03,42.805,6.029,-0.041,-0.025,0.008,110.0,108.0,106.0,13.3,1505.2,348.1,-0.8,1.8,2471.771,13.29,0.048,238.6
2023-12-15T08:22:03,42.805,6.029,-0.051,-0.036,-0.023,111.0,108.0,106.0,13.4,1505.2,350.8,-0.8,1.8,2471.734,13.29,0.062,234.8
2023-12-15T08:25:03,42.805,6.029,-0.069,-0.022,-0.012,109.0,110.0,106.0,13.4,1505.2,2.4,-0.8,1.8,2471.741,13.29,0.072,252.3
2023-12-15T08:28:03,42.805,6.029,-0.052,-0.026,-0.025,110.0,109.0,106.0,13.3,1505.2,341.5,-0.8,1.8,2471.765,13.29,0.058,243.4
2023-12-15T08:31:03,42.805,6.029,-0.065,-0.025,-0.043,110.0,109.0,106.0,13.4,1505.2,344.8,-0.7,1.8,2471.752,13.29,0.069,249.0
2023-12-15T08:34:03,42.805,6.029,-0.062,-0.047,-0.016,109.0,109.0,105.0,13.4,1505.2,349.9,-0.8,1.8,2471.744,13.29,0.077,232.8
2023-12-15T08:37:03,42.805,6.029,-0.037,-0.017,-0.026,110.0,108.0,105.0,13.4,1505.2,0.0,-0.8,1.8,2471.727,13.29,0.04,245.3
2023-12-15T08:40:03,42.805,6.029,-0.063,-0.027,0.016,111.0,108.0,107.0,13.4,1505.2,342.1,-0.8,1.8,2471.711,13.29,0.068,246.8
2023-12-15T08:43:03,42.805,6.029,-0.028,-0.044,-0.036,110.0,109.0,107.0,13.3,1505.2,344.7,-0.8,1.8,2471.739,13.29,0.052,212.5
2023-12-15T08:46:03,42.805,6.029,-0.052,-0.053,-0.048,110.0,108.0,106.0,13.4,1505.2,350.7,-0.7,1.8,2471.733,13.29,0.074,224.5
2023-12-15T08:49:03,42.805,6.029,-0.034,-0.041,-0.04,109.0,110.0,105.0,13.3,1505.2,340.1,-0.8,1.8,2471.772,13.29,0.053,219.7
2023-12-15T08:52:03,42.805,6.029,-0.053,-0.023,-0.016,109.0,108.0,107.0,13.3,1505.2,355.6,-0.8,1.8,2471.72,13.29,0.057,246.5
2023-12-15T08:55:03,42.805,6.029,-0.045,-0.022,-0.018,110.0,109.0,106.0,13.3,1505.2,351.1,-0.8,1.8,2471.751,13.29,0.05,243.9
2023-12-15T08:58:03,42.805,6.029,-0.044,-0.026,-0.029,111.0,108.0,106.0,13.4,1505.2,349.5,-0.8,1.8,2471.761,13.29,0.051,239.4
2023-12-15T09:04:03,42.805,6.029,-0.029,-0.027,-0.029,111.0,109.0,107.0,13.3,1505.2,3.2,-0.8,1.8,2471.806,13.28,0.039,227.0
2023-12-15T09:07:03,42.805,6.029,-0.049,-0.049,-0.05,109.0,109.0,106.0,13.4,1505.2,355.3,-0.7,1.8,2471.833,13.29,0.069,225.0
2023-12-15T09:10:03,42.805,6.029,-0.042,-0.052,-0.017,110.0,108.0,107.0,13.3,1505.2,341.5,-0.8,1.8,2471.806,13.29,0.066,218.9
2023-12-15T09:13:02,42.805,6.029,-0.078,-0.009,-0.015,109.0,109.0,106.0,13.3,1505.2,0.0,-0.8,1.9,2471.814,13.29,0.078,263.4
2023-12-15T09:16:03,42.805,6.029,-0.064,-0.042,-0.044,109.0,108.0,106.0,13.3,1505.2,339.8,-0.8,1.8,2471.778,13.29,0.076,236.7
2023-12-15T09:19:07,42.805,6.029,-0.04,-0.055,-0.048,110.0,109.0,106.0,13.3,1505.2,351.1,-0.8,1.9,2471.773,13.29,0.068,216.0
2023-12-15T09:22:03,42.805,6.029,-0.048,-0.029,-0.047,110.0,108.0,107.0,13.4,1505.2,348.9,-0.8,1.8,2471.748,13.29,0.056,238.9
2023-12-15T09:25:03,42.805,6.029,-0.038,-0.021,-0.037,109.0,109.0,106.0,13.3,1505.2,353.7,-0.8,1.8,2471.791,13.29,0.043,241.1
2023-12-15T09:28:03,42.805,6.029,-0.074,-0.033,-0.028,109.0,109.0,106.0,13.4,1505.2,355.5,-0.7,1.8,2471.786,13.29,0.081,246.0
2023-12-15T09:31:03,42.805,6.029,-0.046,-0.047,-0.017,109.0,109.0,105.0,13.3,1505.2,347.8,-0.8,1.8,2471.752,13.29,0.065,224.4
2023-12-15T09:34:03,42.805,6.029,-0.038,-0.044,-0.043,109.0,109.0,105.0,13.4,1505.2,346.9,-0.8,1.8,2471.75,13.29,0.058,220.8
2023-12-15T09:37:03,42.805,6.029,-0.05,-0.014,-0.032,110.0,108.0,106.0,13.4,1505.2,348.3,-0.8,1.8,2471.758,13.29,0.051,254.4
2023-12-15T09:40:03,42.805,6.029,-0.046,-0.045,-0.009,109.0,108.0,105.0,13.3,1505.2,353.9,-0.8,1.8,2471.784,13.29,0.064,225.6
2023-12-15T09:43:03,42.805,6.029,-0.037,-0.034,-0.01,110.0,109.0,105.0,13.4,1505.2,345.2,-0.8,1.8,2471.814,13.29,0.05,227.4
2023-12-15T09:46:03,42.805,6.029,-0.062,-0.025,-0.019,110.0,109.0,106.0,13.4,1505.2,356.7,-0.8,1.8,2471.77,13.29,0.066,248.0
2023-12-15T09:49:03,42.805,6.029,-0.053,-0.041,0.001,109.0,109.0,105.0,13.3,1505.2,351.8,-0.8,1.8,2471.783,13.29,0.067,232.3